DateTimeUTC,F1_A11,F1_S11,BsB_S11,BsG_S11,BsR_S11,BbsB_S11,BbsG_S11,BbsR_S11,BaB_A11,BaG_A11,BaR_A11,Tu_S11,T_S11,Uu_S11,U_S11,P_S11,T1_A11
2021-08-21T13:00:00Z,00000200,20000000,,,,,,,0000.13,0000.12,-000.09,19.4,26.0,10.0,06.7,0677.2,31.1
2021-08-21T13:01:00Z,00000200,20000000,,,,,,,-000.19,-000.13,-000.02,19.4,26.0,10.0,06.7,0677.2,31.1
2021-08-21T13:02:00Z,00000200,20000000,,,,,,,0000.45,-000.06,0000.05,19.4,26.1,10.1,06.7,0677.2,31.1
2021-08-21T13:03:00Z,00000200,60000000,,,,,,,0000.38,0000.47,0000.17,19.4,26.1,10.1,06.7,0677.2,31.1
2021-08-21T13:04:00Z,00000200,40000000,0001.70,0001.60,0000.54,0000.94,0000.50,-000.13,0000.57,0000.63,0000.53,19.6,25.9,10.1,06.9,0678.1,31.1
2021-08-21T13:05:00Z,00000200,00000000,0001.67,0001.44,0000.84,0000.16,0000.55,-000.09,0000.40,0000.27,0000.22,19.6,25.9,10.2,07.0,0678.2,31.1
2021-08-21T13:06:00Z,00000200,00000000,0001.36,0001.13,0000.98,0000.03,0000.38,0000.27,0000.37,0000.45,0000.79,19.6,25.9,10.2,07.0,0678.2,31.1
2021-08-21T13:07:00Z,00000200,00000000,0001.65,0001.43,0000.87,0000.51,0000.36,-000.14,0000.82,0000.66,0000.01,19.6,25.9,10.3,07.1,0678.2,31.1
2021-08-21T13:08:00Z,00000200,00000000,0001.76,0001.50,0001.15,-000.39,0000.50,-000.21,0000.16,0000.49,0000.41,19.6,25.9,10.4,07.1,0678.2,31.1
2021-08-21T13:09:00Z,00000200,00000000,0001.39,0001.53,0000.96,0000.69,0000.51,0000.21,0000.72,0000.55,0000.39,19.6,25.9,10.5,07.2,0678.2,31.1
2021-08-21T13:10:00Z,00000200,00000000,0000.96,0001.37,0000.98,0000.09,0000.50,-000.07,0000.40,0000.42,0000.36,19.6,25.9,10.6,07.2,0678.2,31.1
2021-08-21T13:11:00Z,00000200,00000000,0001.58,0001.55,0001.11,0000.44,0000.33,0000.12,0000.73,0000.57,0000.43,19.6,25.9,10.7,07.3,0678.2,31.1
2021-08-21T13:12:00Z,00000200,00000000,0001.48,0001.24,0000.70,0000.63,0000.13,0000.03,0000.74,0000.24,0000.53,19.6,25.9,10.7,07.3,0678.2,31.1
2021-08-21T13:13:00Z,00000200,00000000,0001.81,0001.58,0001.40,0000.56,0000.24,0000.25,0000.33,0000.41,0000.20,19.6,25.9,10.8,07.4,0678.2,31.1
2021-08-21T13:14:00Z,00000200,00000000,0001.08,0001.81,0001.24,0000.19,0000.21,0000.18,0000.64,0000.83,0000.37,19.7,25.9,10.9,07.5,0678.2,31.1
2021-08-21T13:15:00Z,00000200,00000000,0001.73,0001.38,0000.96,-000.10,0000.31,-000.06,0000.59,0000.57,0000.64,19.7,25.9,10.8,07.4,0678.2,31.1
2021-08-21T13:16:00Z,00000200,00000000,0002.24,0001.48,0001.17,0000.22,0000.08,-000.25,0000.52,0000.41,0000.14,19.7,25.9,10.8,07.4,0678.2,31.1
2021-08-21T13:17:00Z,00000200,00000000,0001.97,0001.57,0001.09,0000.02,0000.16,-000.10,0000.22,0000.06,0000.43,19.7,25.9,10.9,07.5,0678.2,31.1
2021-08-21T13:18:00Z,00000200,00000000,0001.29,0001.03,0001.16,0000.20,0000.21,-000.31,0000.57,0000.59,0000.46,19.7,25.9,10.7,07.4,0678.2,31.1
2021-08-21T13:19:00Z,00000200,00000000,0001.24,0001.73,0000.79,0000.14,0000.14,0000.11,0000.36,0000.49,0000.05,19.7,25.9,10.8,07.4,0678.2,31.1
2021-08-21T13:20:00Z,00000200,00000000,0001.53,0001.18,0000.85,0000.49,0000.41,0000.06,0000.40,0000.67,0000.43,19.7,25.9,10.8,07.4,0678.2,31.1
2021-08-21T13:21:00Z,00000200,00000000,0001.31,0001.40,0000.93,0000.40,0000.35,-000.09,0000.56,0000.34,0000.68,19.7,25.9,10.8,07.4,0678.2,31.1
2021-08-21T13:22:00Z,00000200,00000000,0001.61,0001.48,0000.82,0000.03,0000.63,-000.02,0000.49,0000.34,0000.14,19.7,25.9,10.9,07.5,0678.2,31.1
2021-08-21T13:23:00Z,00000200,00000000,0002.45,0001.54,0000.42,0000.26,0000.57,-000.20,0000.42,0000.44,0000.10,19.7,25.9,10.8,07.4,0678.2,31.1
2021-08-21T13:24:00Z,00000200,00000000,0001.58,0001.45,0000.80,0000.32,0000.28,0000.00,0000.45,0000.55,0000.53,19.7,25.9,10.9,07.4,0678.2,31.1
2021-08-21T13:25:00Z,00000200,00000000,0001.86,0001.68,0001.08,0000.32,0000.59,0000.02,0000.68,0000.31,0000.45,19.7,25.9,11.0,07.5,0678.2,31.1
2021-08-21T13:26:00Z,00000200,00000000,0001.09,0001.53,0001.18,-000.31,0000.19,-000.07,0000.51,0000.78,0000.40,19.7,25.9,11.0,07.5,0678.2,31.1
2021-08-21T13:27:00Z,00000200,00000000,0001.35,0001.20,0000.55,-000.34,0000.31,-000.31,0000.71,0000.59,0000.31,19.7,25.9,11.0,07.6,0678.2,31.1
2021-08-21T13:28:00Z,00000200,00000000,0000.74,0001.57,0000.82,0000.66,0000.11,-000.22,0000.28,0000.30,0000.82,19.7,25.9,11.0,07.6,0678.2,31.1
2021-08-21T13:29:00Z,00000200,00000000,0001.72,0001.54,0001.05,-000.32,0000.14,0000.04,0000.77,0000.48,0000.48,19.7,25.9,11.0,07.5,0678.2,31.1
2021-08-21T13:30:00Z,00000200,00000000,0001.91,0001.45,0001.03,0000.64,0000.19,-000.20,0000.29,0000.43,-000.05,19.7,25.9,11.0,07.6,0678.2,31.1
2021-08-21T13:31:00Z,00000200,00000000,0001.40,0001.44,0000.90,-000.11,0000.59,0000.14,0000.34,0000.41,0000.45,19.7,25.9,10.9,07.5,0678.1,31.1
2021-08-21T13:32:00Z,00000200,00000000,0001.70,0001.38,0000.87,0000.77,0000.57,0000.05,0000.61,0000.58,0000.51,19.8,25.9,11.0,07.6,0678.2,31.1
2021-08-21T13:33:00Z,00000200,00000000,0001.29,0001.89,0001.45,0000.28,0000.59,0000.19,0001.13,0000.40,0000.40,19.8,25.9,11.1,07.6,0678.1,31.1
2021-08-21T13:34:00Z,00000200,00000000,0002.35,0001.90,0000.99,0000.61,0000.25,0000.38,0000.25,0000.88,0000.43,19.8,25.9,11.3,07.8,0678.2,31.1
2021-08-21T13:35:00Z,00000200,00000000,0001.43,0001.81,0001.29,-000.64,0000.56,-000.11,0000.51,0000.25,0000.41,19.8,25.9,11.3,07.8,0678.2,31.1
2021-08-21T13:36:00Z,00000200,00000000,0001.28,0002.00,0001.38,0000.50,0000.29,0000.00,0000.72,0000.37,0000.20,19.8,25.9,11.2,07.7,0678.2,31.1
2021-08-21T13:37:00Z,00000200,00000000,0002.29,0001.72,0000.98,0000.47,0000.64,-000.27,0000.74,0000.89,0000.58,19.8,26.0,11.3,07.7,0678.2,31.1
2021-08-21T13:38:00Z,00000200,00000000,0002.28,0001.64,0001.17,-000.38,0000.34,0000.07,0000.59,0000.42,0000.43,19.8,26.0,11.1,07.7,0678.2,31.1
2021-08-21T13:39:00Z,00000200,00000000,0002.14,0001.61,0001.58,0000.64,0000.41,0000.23,0000.17,0000.44,0000.33,19.8,26.0,11.2,07.7,0678.2,31.1
2021-08-21T13:40:00Z,00000200,00000000,0001.41,0001.82,0001.35,-000.15,0000.27,-000.14,0000.57,0000.81,0000.58,19.8,25.9,11.2,07.7,0678.2,31.1
2021-08-21T13:41:00Z,00000200,00000000,0002.01,0001.49,0001.18,0000.58,0000.58,-000.18,0000.81,0000.26,0000.20,19.8,26.0,11.3,07.7,0678.2,31.1
2021-08-21T13:42:00Z,00000200,00000000,0001.73,0002.13,0001.03,-000.41,0000.43,-000.42,0000.38,0000.52,0000.64,19.8,26.0,11.3,07.8,0678.2,31.1
2021-08-21T13:43:00Z,00000200,00000000,0001.58,0001.71,0000.98,0000.46,0000.48,0000.04,0000.49,0000.47,0000.65,19.8,26.0,11.1,07.6,0678.2,31.1
2021-08-21T13:44:00Z,00000200,00000000,0002.23,0001.84,0001.05,0000.74,0000.33,0000.13,0000.59,0000.52,0000.21,19.8,26.0,11.1,07.7,0678.1,31.1
2021-08-21T13:45:00Z,00000200,00000000,0003.13,0001.52,0001.23,0000.24,0000.14,0000.21,0000.47,0000.58,0000.37,19.8,26.0,11.2,07.7,0678.1,31.1
2021-08-21T13:46:00Z,00000200,00000000,0002.22,0001.85,0001.08,0000.63,0000.21,0000.04,0000.89,0000.62,0000.51,19.8,26.0,11.0,07.6,0678.2,31.1
2021-08-21T13:47:00Z,00000200,00000000,0001.94,0001.53,0000.93,0000.28,0000.41,-000.11,0000.50,0000.51,0000.05,19.8,26.0,11.1,07.7,0678.1,31.1
2021-08-21T13:48:00Z,00000200,00000000,0002.40,0002.06,0001.35,0000.54,0000.21,0000.25,0000.55,0000.77,0000.97,19.8,26.0,11.1,07.6,0678.1,31.1
2021-08-21T13:49:00Z,00000200,00000000,0002.30,0001.80,0001.06,0000.79,0000.44,0000.15,0000.69,0000.46,0000.25,19.8,26.0,11.1,07.6,0678.1,31.1
2021-08-21T13:50:00Z,00000200,00000000,0001.89,0002.06,0001.58,0000.27,0000.32,-000.32,0000.34,0000.66,0000.61,19.8,26.0,11.1,07.7,0678.1,31.1
2021-08-21T13:51:00Z,00000200,00000000,0002.36,0002.16,0001.22,0000.05,0000.04,0000.22,0001.12,0000.61,0000.33,19.8,26.0,11.1,07.6,0678.2,31.1
2021-08-21T13:52:00Z,00000200,00000000,0002.43,0001.88,0001.59,0000.53,0000.25,-000.05,0000.30,0000.53,0000.58,19.8,26.0,11.1,07.6,0678.2,31.1
2021-08-21T13:53:00Z,00000200,00000000,0002.90,0002.06,0001.48,0000.96,0000.71,0000.05,0000.69,0000.64,0000.36,19.8,26.0,11.0,07.6,0678.2,31.1
2021-08-21T13:54:00Z,00000200,00000000,0002.57,0002.00,0001.34,0000.57,0000.33,-000.17,0000.65,0000.30,0000.42,19.8,26.0,11.1,07.7,0678.2,31.1
2021-08-21T13:55:00Z,00000200,00000000,0001.64,0001.88,0001.27,0000.33,0000.58,0000.11,0000.63,0000.69,0000.56,19.9,26.0,11.0,07.6,0678.2,31.1
2021-08-21T13:56:00Z,00000200,00000000,0002.20,0001.66,0001.38,0000.35,0000.41,-000.43,0000.63,0000.79,0000.55,19.9,26.0,11.0,07.6,0678.2,31.1
2021-08-21T13:57:00Z,00000200,40000000,,,,,,,-000.14,-000.02,-000.01,19.9,26.0,10.4,07.2,0678.2,31.1
2021-08-21T13:58:00Z,00000200,60000000,,,,,,,0000.42,0000.19,0000.04,19.7,26.1,11.0,07.4,0677.2,31.1
2021-08-21T13:59:00Z,00000200,20000000,,,,,,,-000.34,-000.23,-000.01,19.6,26.2,11.0,07.4,0677.2,31.1
